Location: Unspecified
(0.0000°N, 0.0000°E)
Time: 06:56:27
(UTC+00:00)

Hubble Space Telescope - Pass Details

Date: 17 June 2019
Orbit: 536 x 540 km, 28.5° (Epoch: 16 September)

Event Time Altitude Azimuth Distance (km) Brightness Sun altitude
Rises 19:13:35 0° 216° (SW) 2,682 4.5 -16.6°
Reaches altitude 10° 19:16:21 10° 198° (SSW) 1,789 3.4 -17.2°
Enters shadow 19:18:04 17° 176° (S) 1,410 2.6 -17.6°
